Weather History for North Platte, NE

Change the Weather History Date:

Thursday, August 8, 2013

  Actual Average Record
Temperature  
Mean Temperature 71 °F 74 °F  
Max Temperature 82 °F 87 °F 105 °F (1934)
Min Temperature 60 °F 60 °F 44 °F (1888)
Degree Days  
Heating Degree Days 0 0  
Month to date heating degree days 0 0  
Since 1 June heating degree days 60 56  
Since 1 July heating degree days 13 5  
Cooling Degree Days 6 9  
Month to date cooling degree days 59 73  
Year to date cooling degree days 588 532  
Since 1 June cooling degree days 540 504  
Growing Degree Days 22 (Base 50)    
Moisture  
Dew Point 59 °F    
Average Humidity 68    
Maximum Humidity 90    
Minimum Humidity 45    
Precipitation  
Precipitation T in 0.09 in 1.86 in (1897)
Month to date precipitation 3.16 0.77  
Year to date precipitation 14.01 14.70  
Snow  
Snow 0.00 in 0.00 in 0.00 in (2002)
Month to date snowfall 0.0 0.0  
Since 1 June snowfall T 0.0  
Since 1 July snowfall 0.0 0.0  
Snow Depth 0.00 in    
Sea Level Pressure  
Sea Level Pressure 30.00 in    
Wind  
Wind Speed 4 mph (SSE)    
Max Wind Speed 17 mph    
Max Gust Speed 23 mph    
Visibility 10 miles    
Events Thunderstorm    
T = Trace of Precipitation, MM = Missing Value Source: NWS Daily Summary

Daily Weather History Graph

Daily Weather History Graph

Search for Another Location

Airport:

Trip Planner

Search our weather history database for the weather conditions in past years. The results will help you decide how hot, cold, wet, or windy it might be!

Date:

Astronomy

Aug. 08, 2013 Rise Set
Actual Time 6:45 AM CDT 8:50 PM CDT
Civil Twilight 6:15 AM CDT 9:20 PM CDT
Nautical Twilight 5:38 AM CDT 9:57 PM CDT
Astronomical Twilight 4:57 AM CDT 10:37 PM CDT
Moon 8:35 AM CDT (8/8) 9:27 PM CDT (8/8)
Length of Visible Light 15h 05m
Length of Day
14h 04m
Waxing Crescent, 3% of the Moon is Illuminated
Aug 8
Waxing Crescent
Aug 14
First Quarter
Aug 20
Full
Aug 28
Last Quarter
Sep 5
New

Hourly Weather History & Observations

Time (CDT) Temp. Heat Index Dew Point Humidity Pressure Visibility Wind Dir Wind Speed Gust Speed Precip Events Conditions
12:53 AM 66.0 °F - 63.0 °F 90% 29.98 in 10.0 mi ESE 3.5 mph - N/A   Overcast
1:53 AM 68.0 °F - 61.0 °F 78% 29.97 in 10.0 mi SSE 6.9 mph - N/A   Overcast
2:53 AM 68.0 °F - 57.9 °F 70% 29.99 in 10.0 mi SSW 5.8 mph - N/A   Partly Cloudy
3:53 AM 66.0 °F - 59.0 °F 78% 29.97 in 10.0 mi South 5.8 mph - N/A   Overcast
4:53 AM 64.0 °F - 57.9 °F 80% 29.95 in 10.0 mi Calm Calm - N/A   Clear
5:53 AM 63.0 °F - 57.9 °F 84% 29.96 in 10.0 mi Calm Calm - N/A   Overcast
6:53 AM 64.0 °F - 57.0 °F 78% 29.98 in 10.0 mi Calm Calm - N/A   Overcast
7:53 AM 63.0 °F - 57.0 °F 81% 30.01 in 10.0 mi ESE 5.8 mph - N/A   Overcast
8:53 AM 64.9 °F - 57.9 °F 78% 30.01 in 10.0 mi Calm Calm - N/A   Overcast
9:53 AM 66.9 °F - 59.0 °F 76% 30.02 in 10.0 mi SSE 3.5 mph - N/A   Overcast
10:53 AM 70.0 °F - 62.1 °F 76% 30.03 in 10.0 mi Calm Calm - N/A   Overcast
11:53 AM 71.1 °F - 60.1 °F 68% 30.03 in 10.0 mi SSW 9.2 mph - N/A   Overcast
12:53 PM 75.9 °F - 59.0 °F 56% 30.02 in 10.0 mi Variable 3.5 mph - N/A   Clear
1:53 PM 77.0 °F - 59.0 °F 54% 30.00 in 10.0 mi Calm Calm - N/A   Mostly Cloudy
2:53 PM 79.0 °F - 57.9 °F 48% 29.99 in 10.0 mi Calm Calm - N/A   Scattered Clouds
3:53 PM 80.1 °F 80.4 °F 57.0 °F 45% 29.99 in 10.0 mi SE 3.5 mph - N/A   Overcast
4:53 PM 81.0 °F 81.1 °F 57.9 °F 45% 29.98 in 10.0 mi SE 6.9 mph - N/A   Mostly Cloudy
5:53 PM 77.0 °F - 60.1 °F 56% 29.98 in 10.0 mi SE 4.6 mph - N/A   Overcast
6:43 PM 75.2 °F - 60.8 °F 61% 30.06 in 10.0 mi East 10.4 mph - N/A Thunderstorm Scattered Clouds
6:53 PM 77.0 °F - 62.1 °F 60% 29.99 in 10.0 mi ESE 10.4 mph - N/A   Partly Cloudy
7:53 PM 68.0 °F - 57.9 °F 70% 30.04 in 10.0 mi NNW 12.7 mph - N/A   Overcast
8:53 PM 68.0 °F - 57.0 °F 68% 29.99 in 10.0 mi South 8.1 mph - 0.00 in   Clear
9:53 PM 64.9 °F - 60.1 °F 84% 30.03 in 10.0 mi SSE 3.5 mph - N/A   Clear
10:53 PM 64.9 °F - 61.0 °F 87% 30.04 in 10.0 mi Calm Calm - N/A   Clear
11:53 PM 63.0 °F - 59.0 °F 87% 30.05 in 10.0 mi Calm Calm - N/A   Clear